Albuquerque, NM

10:22 AM MDT on June 25, 2018 (GMT -0600)
Albuquerque International Sunport

Weather History for KABQ - September, 2017

Change the Weather History Date:

Thursday, September 14, 2017

  Actual Average Record
Temperature  
Mean Temperature 71 °F 70 °F  
Max Temperature 82 °F 82 °F 95 °F (1956)
Min Temperature 59 °F 59 °F 37 °F (1913)
Degree Days  
Heating Degree Days 0 0  
Month to date heating degree days 0 0  
Since 1 July heating degree days 0 0  
Cooling Degree Days 6 6  
Month to date cooling degree days 160 104  
Year to date cooling degree days 1470 1261  
Growing Degree Days 20 (Base 50)    
Moisture  
Dew Point 46 °F    
Average Humidity 49    
Maximum Humidity 73    
Minimum Humidity 25    
Precipitation  
Precipitation T in 0.04 in 1.22 in (2013)
Month to date precipitation 0.04 0.51  
Year to date precipitation 5.47 6.79  
Snow  
Snow 0.00 in - - ()
Month to date snowfall 0.0  
Since 1 July snowfall 0.0  
Since 1 September snowfall 0.0  
Snow Depth 0.00 in    
Sea Level Pressure  
Sea Level Pressure 29.85 in    
Wind  
Wind Speed 5 mph (SSE)    
Max Wind Speed 18 mph    
Max Gust Speed 22 mph    
Visibility 10 miles    
Events Rain , Thunderstorm    
T = Trace of Precipitation, MM = Missing Value Source: NWS Daily Summary

Daily Weather History Graph

Daily Weather History Graph

Search for Another Location

Airport or City:

Astronomy

Sep. 14, 2017 Rise Set
Actual Time 6:48 AM MDT 7:14 PM MDT
Civil Twilight 6:23 AM MDT 7:39 PM MDT
Nautical Twilight 5:53 AM MDT 8:09 PM MDT
Astronomical Twilight 5:23 AM MDT 8:39 PM MDT
Moon 12:58 AM MDT (9/14) 3:24 PM MDT (9/14)
Length of Visible Light 13h 16m
Length of Day
12h 25m
Waning Crescent, 33% of the Moon is Illuminated
Sep 14
Waning Crescent
Sep 19
New
Sep 27
First Quarter
Oct 5
Full
Oct 12
Last Quarter

Hourly Weather History & Observations

Time (MDT) Temp. Dew Point Humidity Pressure Visibility Wind Dir Wind Speed Gust Speed Precip Events Conditions
12:52 AM 66.0 °F 41.0 °F 40% 29.77 in 10.0 mi ESE 9.2 mph - N/A   Partly Cloudy
1:52 AM 68.0 °F 42.1 °F 39% 29.78 in 10.0 mi Calm Calm - N/A   Scattered Clouds
2:52 AM 64.9 °F 41.0 °F 42% 29.77 in 10.0 mi East 6.9 mph - N/A   Scattered Clouds
3:52 AM 66.9 °F 41.0 °F 39% 29.78 in 10.0 mi SW 4.6 mph - N/A   Scattered Clouds
4:52 AM 64.9 °F 42.1 °F 43% 29.78 in 10.0 mi East 4.6 mph - N/A   Partly Cloudy
5:52 AM 64.0 °F 43.0 °F 46% 29.81 in 10.0 mi WSW 4.6 mph - N/A   Partly Cloudy
6:52 AM 63.0 °F 43.0 °F 48% 29.82 in 10.0 mi Calm Calm - N/A   Scattered Clouds
7:52 AM 66.0 °F 43.0 °F 43% 29.86 in 10.0 mi South 4.6 mph - N/A   Mostly Cloudy
8:33 AM 68.0 °F 42.1 °F 39% 30.11 in 10.0 mi SW 6.9 mph - N/A Thunderstorm Thunderstorm
8:52 AM 70.0 °F 45.0 °F 41% 29.88 in 9.0 mi West 4.6 mph - 0.00 in Rain Light Rain
9:52 AM 69.1 °F 48.9 °F 49% 29.94 in 10.0 mi South 12.7 mph - 0.00 in   Overcast
10:52 AM 73.0 °F 46.0 °F 38% 29.91 in 10.0 mi Calm Calm - N/A   Overcast
11:52 AM 75.0 °F 46.0 °F 36% 29.93 in 10.0 mi NNW 9.2 mph - N/A   Overcast
12:52 PM 73.9 °F 44.1 °F 34% 29.88 in 10.0 mi North 12.7 mph 20.7 mph N/A   Mostly Cloudy
1:52 PM 78.1 °F 42.1 °F 28% 29.83 in 10.0 mi NNE 10.4 mph - N/A   Mostly Cloudy
2:52 PM 80.1 °F 41.0 °F 25% 29.79 in 10.0 mi Calm Calm - N/A   Mostly Cloudy
3:52 PM 79.0 °F 42.1 °F 27% 29.77 in 10.0 mi West 6.9 mph - N/A   Mostly Cloudy
4:52 PM 79.0 °F 42.1 °F 27% 29.76 in 10.0 mi WSW 6.9 mph - N/A   Mostly Cloudy
5:52 PM 77.0 °F 45.0 °F 32% 29.76 in 10.0 mi West 9.2 mph - N/A   Mostly Cloudy
6:50 PM 77.0 °F 44.6 °F 32% 29.97 in 10.0 mi WNW 5.8 mph - 0.00 in Thunderstorm Mostly Cloudy
6:52 PM 77.0 °F 45.0 °F 32% 29.75 in 10.0 mi WNW 5.8 mph - 0.00 in Thunderstorm Mostly Cloudy
7:07 PM 75.0 °F 53.1 °F 46% 30.01 in 10.0 mi SSW 10.4 mph - 0.00 in Rain , Thunderstorm Light Thunderstorms and Rain
7:28 PM 71.1 °F 48.9 °F 45% 29.99 in 10.0 mi ESE 9.2 mph - 0.00 in Thunderstorm Mostly Cloudy
7:41 PM 70.0 °F 48.9 °F 47% 29.99 in 10.0 mi ESE 5.8 mph - 0.00 in   Mostly Cloudy
7:52 PM 71.1 °F 48.9 °F 45% 29.78 in 10.0 mi East 8.1 mph - 0.00 in   Mostly Cloudy
8:27 PM 70.0 °F 53.1 °F 55% 30.00 in 10.0 mi ENE 5.8 mph - 0.00 in Rain , Thunderstorm Light Rain
8:52 PM 70.0 °F 53.1 °F 55% 29.78 in 10.0 mi NE 3.5 mph - 0.00 in Rain Light Rain
9:52 PM 66.9 °F 55.0 °F 66% 29.80 in 10.0 mi ESE 3.5 mph - 0.00 in   Mostly Cloudy
10:52 PM 68.0 °F 53.1 °F 59% 29.80 in 10.0 mi SE 3.5 mph - N/A   Scattered Clouds
11:52 PM 64.9 °F 55.0 °F 70% 29.81 in 10.0 mi East 3.5 mph - N/A   Scattered Clouds